Regional Weather Roundup
Issued by NWS

Home | Current Version | Previous Version | Text Only | Print | Product List | Glossary Off
Versions: 1 2 3 4 5 6 7 8 9 10 11 12 13 14 15 16 17 18 19 20 21 22 23 24 25 26 27 28 29 30 31 32 33 34 35 36 37 38 39 40 41 42 43 44 45 46 47 48 49 50

000
ASUS43 KLOT 251903
RWRIL

ILLINOIS REGIONAL WEATHER ROUNDUP
NATIONAL WEATHER SERVICE CHICAGO/ROMEOVILLE IL
100 PM CST SUN FEB 25 2018

NOTE: "FAIR" INDICATES FEW OR NO CLOUDS BELOW 12,000 FEET WITH NO
SIGNIFICANT WEATHER AND/OR OBSTRUCTIONS TO VISIBILITY.

* THESE STATIONS ARE NOT UNDER NWS QUALITY CONTROL. THEY ALSO MAY NOT
  REPORT WEATHER SUCH AS PRECIPITATION OR FOG.

ILZ001-002-007-009-015-016-024-252000-
NORTHWEST ILLINOIS

CITY           SKY/WX    TMP DP  RH WIND       PRES   REMARKS
MOLINE         FAIR      44  26  49 SW21G29   29.96R
STERLING*      FAIR      42  26  53 W16G22    29.95R
SAVANNA*       FAIR      40  24  52 SW16G22   29.93R
$$

ILZ003-004-008-010-011-017-018-252000-
NORTH CENTRAL ILLINOIS

CITY           SKY/WX    TMP DP  RH WIND       PRES   REMARKS
ROCKFORD       FAIR      38  23  55 SW20G30   29.92R WCI  28
FREEPORT*      FAIR      37  26  63 SW21G26   29.91S WCI  26
ROCHELLE*      FAIR      40  29  65 SW23G30   29.94R
DE KALB*       FAIR      40  26  57 SW20G29   29.94R
PERU*          FAIR      42  24  49 SW15G23   29.98S
$$

ILZ005-006-012>014-019>023-252000-
NORTHEAST ILLINOIS

CITY           SKY/WX    TMP DP  RH WIND       PRES   REMARKS
CHICAGO-OHARE  FAIR      41  23  48 W18G25    29.92R
CHICAGO-MIDWAY FAIR      43  24  47 W21G26    29.94S
AURORA         FAIR      41  28  60 SW20G26   29.95R
LANSING*       FAIR      42  30  61 SW16G25   29.97R
JOLIET*        FAIR      43  27  52 SW14G23   29.97S
WAUKEGAN       FAIR      41  23  48 SW18G29   29.87R
DUPAGE AIRPORT FAIR      41  26  55 SW16G28   29.93R
KANKAKEE*      FAIR      43  28  54 SW22      30.02R
WHEELING       FAIR      41  23  48 SW18G31   29.92R
MORRIS*        FAIR      42  27  54 SW13G21   29.97S
ROMEOVILLE*    FAIR      43  28  55 W24       29.96S
NORTHERLY ISL    N/A     41  20  43 SW9         N/A
$$

LMZ740>746-252000-
SOUTHERN LAKE MICHIGAN

STATION/POSITION SKY/WX   TEMP    WIND        PRES    VSBY  WAVE
                          AIR SEA DIR/SP/G                  HT/PER
                          (F)     (DEG/KT/KT) (MB)    (MI)  (FT/S)
HARRISON CRIB              40     250/ 16/ 21   N/A
BURNHAM HARBOR             41     250/ 12/ 18   N/A
CALUMET HARBOR             41     210/ 16/ 23 1013.3R
BURNS HARBOR               40     240/ 17/ 25 1014.9S
MICHIGAN CITY              38     230/ 25/ 28   N/A
$$

ILZ025>027-034>036-040-047-049-050-058-095>099-252000-
WEST-CENTRAL ILLINOIS

CITY           SKY/WX    TMP DP  RH WIND       PRES   REMARKS
QUINCY         SUNNY     45  26  47 SW14G21   30.05F
GALESBURG*     FAIR      43  29  58 SW16      30.01R
MACOMB*        SUNNY    N/A N/A N/A SW14G25   30.05S
JACKSONVILLE*  SUNNY     44  26  48 SW12      30.07F
PITTSFIELD*    SUNNY     45  28  50 SW8       30.07F
$$

ILZ028>032-037-038-041>044-048-051>054-059>061-252000-
CENTRAL ILLINOIS

CITY           SKY/WX    TMP DP  RH WIND       PRES   REMARKS
BLOOMINGTON    FAIR      42  26  53 W17G23    30.03S
DECATUR        FAIR      44  28  53 W15       30.05F
PEORIA         FAIR      45  25  45 W12       30.03R
LACON*         FAIR      43  21  40 SW9G20    30.00S
LINCOLN*       FAIR      45  28  49 W7        30.05F
SPRINGFIELD    FAIR      46  27  47 W13       30.06F
TAYLORVILLE    FAIR      44  31  59 SW14G22   30.07F
$$

ILZ033-039-045-046-055>057-062-063-252000-
EAST-CENTRAL ILLINOIS

CITY           SKY/WX    TMP DP  RH WIND       PRES   REMARKS
CHAMPAIGN      FAIR      44  32  62 SW15      30.04F
DANVILLE*      PTSUNNY   42  31  65 W18G25    30.01F
RANTOUL*       FAIR      44  33  66 W14       30.03F
MATTOON        FAIR      45  28  51 W9        30.06S
PARIS*         FAIR      45  33  64 W14       30.07S
$$

ILZ079-100>102-252000-
SOUTHWEST ILLINOIS

CITY           SKY/WX    TMP DP  RH WIND       PRES   REMARKS
ALTON          SUNNY     48  27  43 W8        30.10F
BELLEVILLE     FAIR      48  28  46 S8        30.09F
CAHOKIA*       FAIR      48  25  40 SW9G16    30.10F
SPARTA*        FAIR      47  29  49 W6        30.11F
$$

ILZ064>066-069>071-074>076-080>082-084>086-088>090-092>094-252000-
SOUTH-CENTRAL ILLINOIS

CITY           SKY/WX    TMP DP  RH WIND       PRES   REMARKS
CARBONDALE     FAIR      48  30  49 VRB7      30.10F
CAIRO*         FAIR      47  33  59 SW7       30.13S
EFFINGHAM*     FAIR      47  33  57 SW13G18   30.10S
MARION         PTSUNNY   48  27  43 CALM      30.12F
MT. VERNON     FAIR      49  32  52 SW12      30.10F
CENTRALIA*     FAIR      47  33  59 W8        30.10S
SALEM*         FAIR      47  33  57 W13       30.10F
METROPOLIS*    FAIR      49  31  51 W5        30.12F
$$

ILZ067-068-072-073-078-083-087-091-252000-
SOUTHEAST ILLINOIS

CITY           SKY/WX    TMP DP  RH WIND       PRES   REMARKS
LAWRENCEVILLE  FAIR      49  33  54 W13       30.09F
FLORA*         FAIR      48  33  55 W10       30.10S
FAIRFIELD*     FAIR      48  34  58 MISG      30.09F
HARRISBURG*    FAIR      50  32  50 W5        30.11F
ROBINSON*      FAIR      45  33  63 W13       30.09F
CARMI*         FAIR      49  34  54 W7        30.10S
$$

ABBREVIATIONS USED IN REMARKS
   TC - TEMPERATURE IN CELSIUS
  WCI - WIND CHILL INDEX
   HX - HEAT INDEX
  VSB - VISIBILITY
$$





USA.gov is the U.S. government's official web portal to all federal, state and local government web resources and services.